Location: Festilli
(46.4000°N, 11.6667°E)
Time: 15:28:37
(UTC+00:00)

Okean-O - Pass Details

Date: 03 March 2021
Orbit: 639 x 640 km, 98.2° (Epoch: 15 April)

Event Time Altitude Azimuth Distance (km) Brightness Sun altitude
Rises 18:21:18 0° 180° (S) 2,932 6.0 -14.4°
Reaches altitude 10° 18:23:34 10° 186° (S) 2,028 5.2 -14.8°
Maximum altitude 18:27:49 47° 261° (W) 854 3.7 -15.5°
Drops below altitude 10° 18:32:07 10° 335° (NNW) 2,044 5.6 -16.2°
Sets 18:34:25 0° 341° (NNW) 2,958 6.4 -16.6°
